This demonstration page uses our WeatherBlox Daily Observations layout. Learn more.

Left ArrowRight Arrow

39.08367, -84.50855

Hourly Observations for December 30, 2020

Temp ( °F °C ) Dew Point ( °F °C ) Humidity (%) Winds ( mph kmh ) Pressure ( in mb ) Visibility ( mi km ) Precip ( " mm )
12:53 am 00:53 Clear 34 1.1 22 -5.6 61 61 N N/A 30.24 1024 10 16 N/A
1:53 am 01:53 Clear 34 1.1 22 -5.6 61 61 SSW 5 7 30.21 1023 10 16 N/A
2:53 am 02:53 Clear 34 1.1 23 -5 64 64 SSW 7 11 30.19 1023 10 16 N/A
3:53 am 03:53 Partly Cloudy 35 1.7 23 -5 61 61 S 9 15 30.16 1021 10 16 N/A
4:53 am 04:53 Mostly Cloudy 36 2.2 24 -4.4 62 62 S 6 9 30.14 1021 10 16 N/A
5:53 am 05:53 Mostly Clear 36 2.2 26 -3.3 67 67 SSW 8 13 30.12 1020 10 16 N/A
6:53 am 06:53 Clear 35 1.7 27 -2.8 72 72 S 7 11 30.11 1020 10 16 N/A
7:53 am 07:53 Partly Cloudy 36 2.2 28 -2.2 73 73 SW 5 7 30.11 1020 10 16 N/A
8:53 am 08:53 Cloudy 40 4.4 32 undefined 73 73 SSW 7 11 30.11 1020 10 16 N/A
9:53 am 09:53 Cloudy 45 7.2 34 1.1 66 66 SSW 10 17 30.10 1019 10 16 N/A
10:53 am 10:53 Cloudy 50 10 38 3.3 63 63 S 15 24 30.06 1018 10 16 N/A
11:53 am 11:53 Cloudy 58 14.4 43 6.1 58 58 SSW 26 43 30.01 1016 10 16 N/A
12:53 pm 12:53 Cloudy 57 13.9 43 6.1 60 60 SSW 22 35 29.98 1015 10 16 0.00 0.00
1:31 pm 13:31 Cloudy with Light Rain 56 13.3 45 7.2 67 67 SW 12 19 29.98 1015 8 13 0.00 0.00
1:53 pm 13:53 Cloudy with Rain 54 12.2 47 8.3 77 77 WSW 10 17 30.00 1016 5 8 0.02 0.51
2:53 pm 14:53 Cloudy with Light Rain 53 11.7 49 9.4 86 86 SSW 12 19 29.96 1015 5 8 0.08 2.03
3:53 pm 15:53 Cloudy with Light Rain 51 10.6 49 9.4 92 92 SW 5 7 29.96 1014 4 6 0.04 1.02
4:34 pm 16:34 Cloudy with Light Rain 51 10.6 49 9.4 92 92 W 6 9 29.97 1015 3 4 0.04 1.02
4:53 pm 16:53 Cloudy with Rain 50 10 49 9.4 96 96 WSW 5 7 29.97 1015 2 3 0.07 1.78
5:53 pm 17:53 Cloudy with Light Rain 50 10 49 9.4 96 96 SW 5 7 29.95 1014 5 8 0.07 1.78
6:53 pm 18:53 Cloudy with Rain 51 10.6 49 9.4 92 92 SW 6 9 29.96 1015 3 5 0.12 3.05
7:50 pm 19:50 Cloudy with Light Rain 43 6 39 4 87 87 NNW 18 30 30.02 1016 8 13 0.10 2.54
7:53 pm 19:53 Cloudy with Rain 43 6.1 39 3.9 86 86 NNW 16 26 30.01 1016 8 13 0.10 2.54
8:53 pm 20:53 Cloudy with Rain 39 3.9 36 2.2 89 89 NNW 8 13 30.07 1018 4 6 0.05 1.27
9:53 pm 21:53 Cloudy with Rain 38 3.3 34 1.1 86 86 NW 9 15 30.07 1018 6 10 0.06 1.52
10:53 pm 22:53 Cloudy with Light Rain 38 3.3 35 1.7 89 89 NW 6 9 30.10 1019 8 13 0.03 0.76
11:10 pm 23:10 Cloudy with Light Rain 38 3.3 35 1.7 89 89 N N/A 30.12 1020 10 16 0.01 0.25
11:53 pm 23:53 Cloudy with Light Rain 37 2.8 33 0.6 86 86 VRB 5 7 30.11 1020 9 14 0.02 0.51

Powered by AerisWeather